Location: A�t �Alizem
(31.2076°N, 8.7872°W)
Time: 10:45:43
(UTC+00:00)

deb Explorer IX - Pass Details

Date: 01 July 2021
Orbit: 541 x 1234 km, 38.9° (Epoch: 29 July)

Event Time Altitude Azimuth Distance (km) Brightness Sun altitude
Rises 20:24:05 0° 249° (WSW) 2,741 ? -8.3°
Reaches altitude 10° 20:26:22 10° 251° (WSW) 1,811 ? -8.7°
Maximum altitude 20:30:25 72° 336° (NNW) 568 ? -9.5°
Drops below altitude 10° 20:34:31 10° 61° (ENE) 1,831 ? -10.2°
Sets 20:36:51 0° 64° (ENE) 2,774 ? -10.6°
